TimeCDT,TemperatureF,Dew PointF,Humidity,Sea Level PressureIn,VisibilityMPH,Wind Direction,Wind SpeedMPH,Gust SpeedMPH,PrecipitationIn,Events,Conditions,WindDirDegrees,DateUTC
12:15 AM,26.6,21.2,80,30.07,-9999.0,North,16.1,21.9,0.00,,Overcast,350,2013-04-18 05:15:00
12:52 AM,26.1,21.9,84,30.15,-9999.0,North,17.3,21.9,0.00,,Overcast,350,2013-04-18 05:52:00
1:52 AM,26.1,21.9,84,30.15,-9999.0,North,19.6,28.8,0.00,Snow,Light Snow,350,2013-04-18 06:52:00
2:52 AM,26.1,21.9,84,30.15,-9999.0,North,12.7,-,0.00,Snow,Light Snow,360,2013-04-18 07:52:00
3:27 AM,26.6,21.2,80,30.05,-9999.0,NNW,17.3,28.8,0.00,Snow,Light Snow,340,2013-04-18 08:27:00
3:52 AM,26.1,21.0,81,30.14,-9999.0,NNW,20.7,27.6,0.00,Snow,Light Snow,340,2013-04-18 08:52:00
4:17 AM,24.8,21.2,86,30.03,-9999.0,North,19.6,26.5,N/A,,Overcast,350,2013-04-18 09:17:00
4:50 AM,24.8,19.4,80,30.03,-9999.0,NNW,23.0,31.1,0.00,Snow,Light Snow,340,2013-04-18 09:50:00
4:52 AM,25.0,19.9,81,30.13,-9999.0,NNW,20.7,29.9,0.00,Snow,Light Snow,340,2013-04-18 09:52:00
4:57 AM,24.8,19.4,80,30.04,-9999.0,NNW,17.3,29.9,0.00,Snow,Light Snow,340,2013-04-18 09:57:00
5:30 AM,24.8,19.4,80,30.02,-9999.0,NNW,19.6,29.9,0.00,Snow,Light Snow,340,2013-04-18 10:30:00
5:52 AM,24.1,19.9,84,30.12,-9999.0,NNW,23.0,32.2,0.00,Snow,Light Snow,340,2013-04-18 10:52:00
6:52 AM,24.1,19.0,81,30.13,-9999.0,NNW,18.4,27.6,0.00,,Overcast,340,2013-04-18 11:52:00
7:10 AM,24.8,19.4,80,30.03,-9999.0,NNW,21.9,27.6,N/A,,Overcast,340,2013-04-18 12:10:00
7:22 AM,24.8,17.6,74,30.03,-9999.0,North,16.1,28.8,N/A,,Overcast,350,2013-04-18 12:22:00
7:49 AM,24.8,19.4,80,30.03,-9999.0,North,21.9,29.9,N/A,,Overcast,350,2013-04-18 12:49:00
7:52 AM,24.1,19.0,81,30.12,-9999.0,North,17.3,28.8,N/A,,Overcast,350,2013-04-18 12:52:00
8:18 AM,24.8,19.4,80,30.03,-9999.0,North,17.3,27.6,N/A,,Overcast,350,2013-04-18 13:18:00
8:52 AM,25.0,19.0,78,30.13,-9999.0,NNW,15.0,26.5,N/A,,Overcast,340,2013-04-18 13:52:00
9:52 AM,26.1,19.9,78,30.12,-9999.0,NNW,18.4,28.8,0.00,Snow,Light Snow,340,2013-04-18 14:52:00
10:52 AM,26.1,21.0,81,30.12,-9999.0,NNW,19.6,32.2,0.00,Snow,Snow,340,2013-04-18 15:52:00
11:05 AM,26.6,21.2,80,30.02,-9999.0,NNW,26.5,31.1,N/A,Snow,Light Snow,340,2013-04-18 16:05:00
11:36 AM,26.6,19.4,74,30.02,-9999.0,NNW,21.9,33.4,0.00,Snow,Light Snow,330,2013-04-18 16:36:00
11:43 AM,28.4,19.4,69,30.02,-9999.0,NNW,25.3,33.4,0.00,Snow,Light Snow,340,2013-04-18 16:43:00
11:52 AM,27.0,19.9,75,30.11,-9999.0,NNW,24.2,34.5,0.00,Snow,Light Snow,340,2013-04-18 16:52:00
12:52 PM,28.9,19.0,67,30.10,-9999.0,NNW,19.6,35.7,0.00,,Mostly Cloudy,330,2013-04-18 17:52:00
1:08 PM,28.4,19.4,69,30.01,-9999.0,NNW,24.2,34.5,N/A,,Overcast,330,2013-04-18 18:08:00
1:29 PM,28.4,19.4,69,30.01,-9999.0,NNW,20.7,34.5,N/A,,Overcast,330,2013-04-18 18:29:00
1:52 PM,30.0,21.9,72,30.10,-9999.0,NNW,20.7,32.2,0.00,Snow,Light Snow,330,2013-04-18 18:52:00
2:06 PM,28.4,23.0,80,30.01,-9999.0,NW,20.7,32.2,N/A,Snow,Light Snow,320,2013-04-18 19:06:00
2:52 PM,30.0,23.0,75,30.10,-9999.0,NW,20.7,32.2,0.00,Snow,Light Snow,320,2013-04-18 19:52:00
3:52 PM,30.9,21.9,69,30.09,-9999.0,NW,24.2,34.5,0.00,Snow,Light Snow,320,2013-04-18 20:52:00
4:04 PM,30.2,21.2,69,30.00,-9999.0,NNW,23.0,32.2,0.00,Snow,Light Snow,330,2013-04-18 21:04:00
4:15 PM,32.0,21.2,64,30.00,-9999.0,NNW,26.5,34.5,0.00,,Overcast,340,2013-04-18 21:15:00
4:52 PM,32.0,23.0,69,30.08,-9999.0,NW,23.0,31.1,0.00,Snow,Light Snow,310,2013-04-18 21:52:00
5:25 PM,30.2,24.8,80,30.00,-9999.0,NNW,23.0,32.2,0.00,Snow,Snow,330,2013-04-18 22:25:00
5:52 PM,32.0,24.1,73,30.09,-9999.0,NNW,19.6,27.6,0.00,Snow,Light Snow,340,2013-04-18 22:52:00
5:59 PM,32.0,24.8,75,30.00,-9999.0,North,19.6,25.3,0.00,Snow,Light Snow,350,2013-04-18 22:59:00
6:19 PM,32.0,23.0,69,30.00,-9999.0,NNW,17.3,26.5,0.00,,Scattered Clouds,330,2013-04-18 23:19:00
6:52 PM,34.0,21.9,61,30.09,-9999.0,NNW,20.7,32.2,0.00,,Scattered Clouds,340,2013-04-18 23:52:00
7:52 PM,32.0,21.0,64,30.09,-9999.0,NNW,12.7,-,N/A,,Clear,340,2013-04-19 00:52:00
8:52 PM,28.9,19.9,69,30.11,-9999.0,NW,8.1,-,N/A,,Partly Cloudy,320,2013-04-19 01:52:00
9:52 PM,28.0,19.9,72,30.12,-9999.0,NW,5.8,-,N/A,,Clear,320,2013-04-19 02:52:00
10:52 PM,25.0,19.0,78,30.12,-9999.0,WNW,4.6,-,N/A,,Clear,300,2013-04-19 03:52:00
11:52 PM,25.0,19.0,78,30.10,-9999.0,WNW,5.8,-,N/A,,Clear,290,2013-04-19 04:52:00